CT2IRK-11 Weather Reports


Display with metric or nautical units.
time (UTC)temp
F
wind
direction
speed
MPH
gust
MPH
rain 1hr
in
rain 24hr
in
rain mn
in
humidity
%
barometer
mb
20260510183005 61 192 5.0 7.0 0.00 1.06 0.26 92 1003.4
20260510181006 61 208 7.0 9.0 0.02 1.06 0.26 91 1003.3
20260510180005 61 208 9.0 13.0 0.03 1.06 0.26 89 1003.3
20260510174005 61 180 7.0 10.0 0.03 1.06 0.26 91 1003.2
20260510173006 60 205 7.0 12.0 0.03 1.06 0.26 92 1003.5
20260510172005 60 198 9.0 16.0 0.03 1.06 0.26 91 1003.3
20260510171006 63 195 16.0 21.0 0.01 1.04 0.24 80 1003.0
20260510170005 65 184 12.0 17.0 0.00 1.03 0.23 71 1002.8
20260510164005 67 202 13.0 21.0 0.00 1.05 0.23 66 1002.8
20260510163005 66 214 11.0 18.0 0.00 1.07 0.23 67 1002.7
20260510162005 67 191 11.0 15.0 0.00 1.08 0.23 70 1002.8
20260510161005 65 180 10.0 24.0 0.01 1.08 0.23 77 1002.7
20260510160005 65 221 12.0 17.0 0.01 1.08 0.23 74 1002.8
20260510155006 67 175 13.0 16.0 0.02 1.08 0.23 66 1002.9
20260510153005 65 190 11.0 15.0 0.05 1.08 0.23 73 1003.1
20260510152005 65 170 8.0 13.0 0.05 1.08 0.23 75 1003.3
20260510151005 62 138 9.0 15.0 0.04 1.08 0.22 83 1003.6
20260510150006 61 202 10.0 14.0 0.04 1.08 0.22 88 1003.5
20260510145006 62 193 10.0 17.0 0.03 1.07 0.21 83 1003.5
20260510142005 68 285 13.0 21.0 0.00 1.04 0.18 57 1003.0
20260510141005 70 226 12.0 17.0 0.00 1.04 0.18 58 1002.9
20260510140005 71 193 10.0 15.0 0.00 1.04 0.18 59 1003.3
20260510134005 70 225 9.0 16.0 0.00 1.08 0.18 52 1003.0
20260510132005 71 219 14.0 21.0 0.00 1.14 0.18 51 1003.1
20260510131005 72 238 10.0 17.0 0.00 1.14 0.18 51 1003.1
20260510130005 70 203 8.0 17.0 0.00 1.14 0.18 53 1003.2
20260510125005 71 193 16.0 21.0 0.00 1.14 0.18 48 1003.2
20260510124005 71 166 9.0 22.0 0.00 1.14 0.18 47 1003.2
20260510123006 71 215 13.0 20.0 0.00 1.14 0.18 45 1003.2
20260510122006 69 184 14.0 21.0 0.00 1.14 0.18 50 1003.2
20260510120005 70 169 12.0 23.0 0.00 1.14 0.18 49 1003.3
20260510114007 69 216 15.0 18.0 0.00 1.14 0.18 54 1003.3
20260510113005 68 209 13.0 21.0 0.00 1.14 0.18 58 1003.3
20260510112005 69 214 13.0 18.0 0.01 1.14 0.18 56 1003.5
20260510111006 67 184 16.0 23.0 0.01 1.14 0.18 58 1003.4
20260510110005 69 197 13.0 18.0 0.01 1.14 0.18 58 1003.3
20260510105005 69 183 9.0 16.0 0.01 1.14 0.18 55 1003.3
20260510104005 67 252 10.0 15.0 0.01 1.14 0.18 60 1003.3
20260510103005 66 202 9.0 14.0 0.10 1.14 0.18 63 1003.4
20260510101005 65 215 12.0 18.0 0.12 1.13 0.17 68 1003.4
20260510095005 59 232 5.0 10.0 0.12 1.13 0.17 91 1003.5
20260510094004 58 270 10.0 13.0 0.12 1.13 0.17 91 1003.6
20260510093005 60 187 6.0 15.0 0.03 1.04 0.08 84 1003.4
20260510091005 65 177 8.0 12.0 0.00 1.01 0.05 66 1003.3
20260510090005 65 246 10.0 12.0 0.00 1.01 0.05 68 1003.2
20260510085005 64 195 8.0 12.0 0.00 1.01 0.05 68 1003.2
20260510084005 64 189 7.0 13.0 0.00 1.01 0.05 69 1003.3
20260510083005 62 135 9.0 13.0 0.00 1.01 0.05 71 1003.2
20260510082005 62 217 10.0 12.0 0.00 1.01 0.05 72 1003.4
20260510074005 61 172 5.0 7.0 0.01 1.02 0.05 76 1003.4
20260510073005 60 142 0.0 5.0 0.04 1.03 0.05 80 1003.3
20260510072004 59 172 0.0 5.0 0.04 1.03 0.05 82 1003.2
20260510071004 55 195 2.0 6.0 0.04 1.04 0.05 89 1003.1
20260510065005 53 190 6.0 12.0 0.04 1.05 0.05 95 1003.2
20260510064005 53 223 8.0 21.0 0.03 1.04 0.04 95 1003.5
20260510063005 56 182 9.0 18.0 0.00 1.02 0.01 91 1002.8
20260510062005 56 180 7.0 12.0 0.00 1.04 0.01 89 1002.6
20260510061005 56 167 6.0 10.0 0.00 1.07 0.01 91 1002.3
20260510060005 56 160 6.0 10.0 0.00 1.09 0.01 91 1002.2
20260510055005 55 164 6.0 9.0 0.00 1.11 0.01 94 1002.2
20260510054004 55 127 8.0 10.0 0.00 1.11 0.01 94 1002.2
20260510053004 55 134 5.0 8.0 0.00 1.11 0.01 96 1002.2
20260510052005 55 171 4.0 7.0 0.00 1.11 0.01 95 1002.0
20260510051006 55 138 2.0 8.0 0.00 1.11 0.01 94 1002.0
20260510044006 56 194 7.0 12.0 0.00 1.11 0.01 95 1002.0
20260510043006 56 201 3.0 10.0 0.00 1.11 0.01 96 1001.8
20260510041006 56 137 6.0 13.0 0.00 1.13 0.01 95 1001.7
20260510040006 56 146 9.0 12.0 0.00 1.17 0.01 94 1001.6
20260510035006 56 151 8.0 9.0 0.00 1.17 0.01 91 1001.6
20260510034006 56 193 8.0 10.0 0.00 1.21 0.01 92 1001.7
20260510033005 55 193 6.0 10.0 0.00 1.21 0.01 93 1001.6
20260510032005 55 158 6.0 10.0 0.00 1.21 0.01 96 1001.7
20260510030006 55 179 8.0 12.0 0.00 1.21 0.01 99 1001.7
20260510025006 54 160 6.0 9.0 0.00 1.21 0.01 99 1001.7
20260510024005 54 180 3.0 8.0 0.00 1.21 0.01 99 1001.7
20260510023006 54 130 6.0 10.0 0.00 1.21 0.01 99 1001.8
20260510022006 55 158 7.0 10.0 0.00 1.21 0.01 99 1001.9
20260510021006 55 158 9.0 13.0 0.00 1.21 0.01 99 1001.8
20260510020005 55 149 5.0 10.0 0.00 1.21 0.01 99 1001.9
20260510015006 55 136 6.0 12.0 0.00 1.21 0.01 99 1001.9
20260510014005 55 196 9.0 14.0 0.00 1.21 0.01 99 1002.2
20260510013005 55 180 8.0 10.0 0.00 1.21 0.01 99 1002.1
20260510012005 55 160 6.0 10.0 0.00 1.21 0.01 99 1002.3
20260510011005 55 147 5.0 10.0 0.00 1.21 0.01 99 1002.4
20260510010006 55 190 4.0 8.0 0.00 1.21 0.01 99 1002.5
20260510005006 55 191 7.0 9.0 0.00 1.21 0.01 99 1002.5
20260510004005 55 163 5.0 10.0 0.00 1.21 0.01 99 1002.6
20260510003005 55 159 6.0 13.0 0.00 1.21 0.01 99 1002.7
20260510002005 56 149 6.0 12.0 0.00 1.22 0.01 99 1002.9
20260510001006 56 180 9.0 12.0 0.00 1.22 0.01 99 1002.7
20260510000005 56 174 7.0 9.0 0.01 1.22 0.01 99 1002.8
20260509234005 55 169 4.0 6.0 0.25 1.22 0.01 99 1002.9
20260509233005 55 178 1.0 2.0 0.38 1.22 0.01 99 1003.0
20260509232005 55 177 0.0 3.0 0.73 1.22 0.01 99 1002.8
20260509231005 54 166 2.0 9.0 0.80 1.22 0.01 99 1003.0
20260509230007 54 162 6.0 10.0 0.80 1.21 0.00 99 1003.2
20260509223005 54 179 5.0 16.0 0.43 0.84 0.84 96 1003.3
20260509222006 58 178 3.0 14.0 0.14 0.55 0.55 97 1003.1
20260509221005 59 155 5.0 9.0 0.02 0.43 0.43 91 1002.8
20260509220005 59 204 7.0 10.0 0.00 0.41 0.41 87 1002.8
20260509215005 59 183 6.0 13.0 0.00 0.41 0.41 85 1002.7
20260509214006 59 158 8.0 10.0 0.00 0.41 0.41 85 1002.6
20260509212006 59 117 6.0 9.0 0.00 0.43 0.41 85 1002.5
20260509211006 59 174 6.0 10.0 0.00 0.44 0.41 85 1002.4
20260509210005 59 169 7.0 9.0 0.00 0.45 0.41 85 1002.2
20260509205005 59 173 7.0 10.0 0.00 0.46 0.41 85 1002.1
20260509204005 59 198 4.0 8.0 0.00 0.47 0.41 85 1002.0
20260509203005 60 178 6.0 8.0 0.00 0.47 0.41 85 1001.8
20260509202005 60 182 6.0 9.0 0.00 0.48 0.41 85 1001.7
20260509201006 60 179 5.0 10.0 0.00 0.48 0.41 87 1001.5
20260509200005 60 177 7.0 10.0 0.00 0.48 0.41 87 1001.4
20260509195005 61 180 3.0 9.0 0.00 0.48 0.41 87 1001.3
20260509194006 61 169 2.0 9.0 0.00 0.48 0.41 87 1001.3
20260509193005 61 193 5.0 8.0 0.00 0.48 0.41 88 1001.2
20260509192005 61 181 6.0 9.0 0.00 0.48 0.41 85 1001.0
20260509191006 62 175 7.0 9.0 0.00 0.48 0.41 84 1000.8
20260509190006 62 171 6.0 9.0 0.00 0.48 0.41 83 1000.6
20260509185005 62 197 6.0 9.0 0.00 0.48 0.41 82 1000.6
20260509184005 62 173 7.0 10.0 0.00 0.48 0.41 83 1000.6